This is the latest recevied weather packets stored in our database for station/object K7NDG. If no packets are shown the sender has not sent any weather packets the latest 10 day(s).
| Time | Temp. | Humidity | Pressure | Rain* | Wind** | Luminosity | Snow |
|---|---|---|---|---|---|---|---|
| 1777837026 | 27.22° C | 41% | 1012.4 hPa | 0 mm | - | 637 W/m² | - |
| 1777836722 | 27.22° C | 43% | 1012.4 hPa | 0 mm | - | 614 W/m² | - |
| 1777836417 | 26.67° C | 39% | 1012.4 hPa | 0 mm | - | 574 W/m² | - |
| 1777836113 | 26.67° C | 39% | 1012.5 hPa | 0 mm | - | 607 W/m² | - |
| 1777835810 | 26.11° C | 42% | 1012.7 hPa | 0 mm | - | 500 W/m² | - |
| 1777835507 | 26.11° C | 41% | 1012.7 hPa | 0 mm | - | 213 W/m² | - |
| 1777835204 | 26.11° C | 40% | 1012.7 hPa | 0 mm | - | 213 W/m² | - |
| 1777834901 | 26.11° C | 42% | 1012.8 hPa | 0 mm | - | 365 W/m² | - |
| 1777834597 | 26.11° C | 44% | 1012.7 hPa | 0 mm | - | 1368 W/m² | - |
| 1777834292 | 25.56° C | 44% | 1012.9 hPa | 0 mm | - | 1368 W/m² | - |
| 1777833988 | 25.56° C | 45% | 1012.9 hPa | 0 mm | - | 373 W/m² | - |
| 1777833685 | 25° C | 44% | 1013.1 hPa | 0 mm | - | 215 W/m² | - |
| 1777833381 | 25° C | 45% | 1012.9 hPa | 0 mm | - | 396 W/m² | - |
| 1777833078 | 25° C | 43% | 1013.1 hPa | 0 mm | - | 597 W/m² | - |
| 1777832777 | 25° C | 47% | 1013.1 hPa | 0 mm | - | 586 W/m² | - |
| 1777832475 | 25° C | 50% | 1013.2 hPa | 0 mm | - | 595 W/m² | - |
| 1777832171 | 24.44° C | 50% | 1013.2 hPa | 0 mm | - | 569 W/m² | - |
| 1777831868 | 23.89° C | 49% | 1013.2 hPa | 0 mm | - | 554 W/m² | - |
| 1777831565 | 23.89° C | 49% | 1013.3 hPa | 0 mm | - | 535 W/m² | - |
| 1777831263 | 23.33° C | 47% | 1013.3 hPa | 0 mm | - | 531 W/m² | - |
| 1777830959 | 23.33° C | 49% | 1013.5 hPa | 0 mm | - | 537 W/m² | - |
| 1777830657 | 23.33° C | 47% | 1013.4 hPa | 0 mm | - | 527 W/m² | - |
| 1777830353 | 22.78° C | 48% | 1013.5 hPa | 0 mm | - | 520 W/m² | - |
| 1777830050 | 22.78° C | 49% | 1013.6 hPa | 0 mm | - | 511 W/m² | - |
| 1777829745 | 22.78° C | 48% | 1013.5 hPa | 0 mm | - | 476 W/m² | - |
* Rain latest hour (hover to see other rain measurements)
** Current wind speed in m/s (hover to see current wind gust speed)